NOSS 3-1 (A) - Orbit

View from above orbital plane
View from above orbital plane
View from above satellite
View from above satellite

Ground track
Ground track

The orbit data is extracted from the following two-line orbital elements,

1 26905U 01040A   13164.34553072 0.00000000  00000-0  00000-0 0    04
2 26905  63.4260 169.5294 0240000 357.6653   2.3347 13.40665666    04
Epoch (UTC): 13 June 2013 08:17:33
Eccentricity: 0.0240000
inclination: 63.4260°
perigee height: 927 km
apogee height: 1286 km
right ascension of ascending node: 169.5294°
argument of perigee: 357.6653°
revolutions per day: 13.40665666
mean anomaly at epoch: 2.3347°
orbit number at epoch: 0

The dashed part of the orbit path shows where the satellite is in the earth's shadow,  

Developed and maintained by Chris Peat, Heavens-Above GmbH. Please read the updated FAQ before sending e-mail. Imprint. DLR